CAPE
0 0 0 0 0 0 0 0 0 0 0 0 0 0 0 0 0 0 0 0 0 0 0 0 0 0 0 0 0 0 0 0 0 0 0 0 0 0 0 0 0 0 0 0
0 0 0 0 0 0 0 0 0 0 0 0 0 0 0 0 0 0 0 0 0 0 0 0 0 0 0 0 0 0 0 0 0 0 0 0 0 0 0 0 0 0 0 1
0 0 0 0 0 0 0 0 0 0 0 0 0 0 0 0 0 0 0 0 0 0 0 0 0 0 0 0 0 0 0 0 0 0 0 0 0 0 0 0 0 0 0 1
0 0 0 0 0 0 0 0 0 0 0 0 0 0 0 0 0 0 0 0 0 0 0 0 0 0 0 0 0 0 0 0 0 0 0 0 0 0 1 1 0 0 1 1
0 0 0 0 0 0 0 0 0 0 0 0 0 0 0 0 0 0 0 0 0 0 0 0 0 0 0 0 0 0 0 0 0 0 0 0 0 2 1 0 0 0 0 1
0 0 0 0 0 0 0 0 0 0 0 0 0 0 0 0 0 0 0 0 0 0 0 0 0 0 0 0 0 0 0 0 0 0 0 0 0 0 0 0 0 0 0 3
0 2 0 0 0 0 0 0 0 0 0 0 0 0 0 0 0 0 0 0 0 0 0 0 0 0 0 0 0 0 0 0 0 0 0 0 0 0 0 0 0 2 1 3
0 18 0 0 0 0 0 0 0 0 0 0 0 0 0 0 0 0 0 0 0 0 0 0 0 0 0 0 0 0 0 0 0 0 0 0 0 0 0 2 3 2 2 3
0 0 0 0 0 0 0 0 0 0 0 0 0 0 0 0 0 0 0 0 0 0 0 0 0 0 0 0 0 0 0 0 0 0 0 0 0 0 5 8 11 9 9 18
0 0 0 0 0 0 0 0 0 0 0 0 0 0 0 0 0 0 0 0 0 0 0 0 0 0 0 0 0 0 0 0 0 0 0 0 0 2 8 5 10 5 9 11
0 0 0 0 0 0 0 0 0 0 0 0 0 0 0 0 0 0 0 0 0 0 0 0 0 0 0 0 0 0 0 0 0 0 0 0 0 2 2 3 4 12 14 15
0 0 0 0 0 0 0 0 0 0 0 0 0 0 0 0 0 0 0 0 0 0 0 0 0 0 0 0 0 0 0 0 0 0 2 2 3 2 0 0 0 0 0 4
5 0 0 0 0 0 0 0 0 0 0 0 0 0 0 0 0 0 0 0 0 0 0 0 0 0 0 0 0 0 0 0 0 0 4 4 3 2 3 4 0 0 0 0
6 0 0 0 0 0 0 0 0 0 0 0 0 0 0 0 0 0 0 0 0 0 0 0 0 0 0 0 0 0 0 0 0 0 1 2 0 1 3 6 10 9 3 1
0 0 0 0 0 0 0 0 0 0 0 0 0 0 0 0 0 0 0 0 0 0 0 0 0 0 0 0 0 0 0 0 0 0 2 1 0 1 2 5 6 9 12 6
0 0 0 0 0 0 0 0 0 0 0 0 0 0 0 0 0 0 0 0 0 0 0 0 0 0 0 0 0 0 0 0 0 0 0 0 0 0 2 5 6 9 10 24
0 0 0 0 0 0 0 0 0 0 0 0 0 0 0 0 0 0 0 0 0 0 0 0 0 0 0 0 0 0 3 1 0 0 0 0 0 2 2 6 8 12 18 23
0 0 0 0 0 0 0 0 0 0 0 0 0 0 0 0 0 0 0 0 0 0 0 0 0 0 0 0 0 0 0 0 0 0 2 3 3 3 7 7 7 10 23 25
0 0 0 0 0 0 0 0 0 0 0 0 0 0 0 0 0 0 0 0 0 0 0 0 0 0 0 0 0 0 0 0 0 0 0 1 9 11 10 14 9 16 31 43
0 0 0 0 0 0 0 0 0 0 0 0 0 0 0 0 0 0 0 0 0 0 0 0 0 0 0 0 0 0 0 0 0 0 3 4 11 17 17 7 9 29 53 50
0 0 0 0 0 0 0 0 0 0 0 0 0 0 0 0 0 0 0 0 0 0 0 0 0 0 0 0 0 0 0 0 1 1 7 11 15 15 15 21 40 51 50 46
2 0 0 0 0 0 0 0 0 0 0 0 0 0 0 0 0 0 0 0 0 0 0 0 0 0 0 0 0 0 0 0 0 1 5 11 12 22 35 27 36 45 54 43
20 0 0 0 0 0 0 0 0 0 0 0 0 0 0 0 0 0 0 0 0 0 0 0 0 0 0 0 0 1 0 1 4 5 9 13 14 15 8 6 22 42 47 41
7 1 0 0 0 0 0 0 0 0 0 0 0 0 0 0 0 0 0 0 0 0 0 0 0 0 0 1 2 6 5 6 8 12 7 2 21 14 7 4 5 22 35 35
2 1 0 0 0 0 0 0 0 0 0 0 0 0 0 0 0 0 0 0 0 0 1 0 0 0 5 13 6 6 7 8 11 13 9 14 14 14 7 5 2 9 29 35
0 0 0 0 0 0 0 0 0 0 0 0 0 2 3 0 0 0 0 0 0 0 1 5 5 7 11 4 5 5 3 2 2 6 7 9 10 9 6 4 6 5 31 31
0 0 0 0 0 0 0 0 0 0 0 0 1 6 5 2 2 0 0 3 5 4 9 10 6 1 6 3 2 1 1 2 1 4 8 10 16 32 16 10 8 6 9 5
CIN
0 0 0 0 0 0 0 0 0 0 0 0 0 0 0 0 0 0 0 0 0 0 0 0 0 0 0 0 0 0 0 0 0 0 0 0 0 0 0 0 0 0 0 0
0 0 0 0 0 0 0 0 0 0 0 0 0 0 0 0 0 0 0 0 0 0 0 0 0 0 0 0 0 0 0 0 0 0 0 0 0 0 0 0 0 0 0 0
0 0 0 0 0 0 0 0 0 0 0 0 0 0 0 0 0 0 0 0 0 0 0 0 0 0 0 0 0 0 0 0 0 0 0 0 0 0 0 0 0 0 0 0
0 0 0 0 0 0 0 0 0 0 0 0 0 0 0 0 0 0 0 0 0 0 0 0 0 0 0 0 0 0 0 0 0 0 0 0 0 0 0 0 0 0 0 0
0 0 0 0 0 0 0 0 0 0 0 0 0 0 0 0 0 0 0 0 0 0 0 0 0 0 0 0 0 0 0 0 0 0 0 0 0 -9 0 0 0 0 0 0
0 -1 0 0 0 0 0 0 0 0 0 0 0 0 0 0 0 0 0 0 0 0 0 0 0 0 0 0 0 0 0 0 0 0 0 0 0 0 0 0 0 0 0 0
0 -1 0 0 0 0 0 0 0 0 0 0 0 0 0 0 0 0 0 0 0 0 0 0 0 0 0 0 0 0 0 0 0 0 0 0 0 0 0 0 0 0 0 0
0 0 0 0 0 0 0 0 0 0 0 0 0 0 0 0 0 0 0 0 0 0 0 0 0 0 0 0 0 0 0 0 0 0 0 0 0 0 0 0 0 0 0 0
0 0 0 0 0 0 0 0 0 0 0 0 0 0 0 0 0 0 0 0 0 0 0 0 0 0 0 0 0 0 0 0 0 0 0 0 0 0 0 0 0 0 0 0
0 0 0 0 0 0 0 0 0 0 0 0 0 0 0 0 0 0 0 0 0 0 0 0 0 0 0 0 0 0 0 0 0 0 0 0 0 0 0 0 0 0 0 0
0 0 0 0 0 0 0 0 0 0 0 0 0 0 0 0 0 0 0 0 0 0 0 0 0 0 0 0 0 0 0 0 0 0 0 0 0 0 0 0 -2 0 0 0
0 0 0 0 0 0 0 0 0 0 0 0 0 0 0 0 0 0 0 0 0 0 0 0 0 0 0 0 0 0 0 0 0 0 0 0 0 0 0 0 0 0 0 0
0 0 0 0 0 0 0 0 0 0 0 0 0 0 0 0 0 0 0 0 0 0 0 0 0 0 0 0 0 0 0 0 0 0 0 0 0 0 0 0 0 0 0 0
-22 0 0 0 0 0 0 0 0 0 0 0 0 0 0 0 0 0 0 0 0 0 0 0 0 0 0 0 0 0 0 0 0 0 0 0 0 0 0 0 0 0 -3 -3
0 0 0 0 0 0 0 0 0 0 0 0 0 0 0 0 0 0 0 0 0 0 0 0 0 0 0 0 0 0 0 0 0 0 0 0 0 0 0 0 0 0 0 -1
0 0 0 0 0 0 0 0 0 0 0 0 0 0 0 0 0 0 0 0 0 0 0 0 0 0 0 0 0 0 0 0 0 0 0 0 0 0 0 0 0 0 0 0
0 0 0 0 0 0 0 0 0 0 0 0 0 0 0 0 0 0 0 0 0 0 0 0 0 0 0 0 0 0 0 0 0 0 0 0 0 0 0 0 0 0 0 0
0 0 0 0 0 0 0 0 0 0 0 0 0 0 0 0 0 0 0 0 0 0 0 0 0 0 0 0 0 0 0 0 0 0 0 0 0 0 0 0 0 0 0 -1
0 0 0 0 0 0 0 0 0 0 0 0 0 0 0 0 0 0 0 0 0 0 0 0 0 0 0 0 0 0 0 0 0 0 0 0 0 0 0 0 0 0 0 0
0 0 0 0 0 0 0 0 0 0 0 0 0 0 0 0 0 0 0 0 0 0 0 0 0 0 0 0 0 0 0 0 0 0 0 0 0 0 0 0 0 0 0 0
0 0 0 0 0 0 0 0 0 0 0 0 0 0 0 0 0 0 0 0 0 0 0 0 0 0 0 0 0 0 0 0 0 0 0 0 0 0 0 0 0 0 0 0
0 0 0 0 0 0 0 0 0 0 0 0 0 0 0 0 0 0 0 0 0 0 0 0 0 0 0 0 0 0 0 0 0 0 0 0 0 0 0 0 0 0 0 0
0 0 0 0 0 0 0 0 0 0 0 0 0 0 0 0 0 0 0 0 0 0 0 0 0 0 0 0 0 0 0 0 0 0 0 0 0 0 0 0 0 0 0 0
0 0 0 0 0 0 0 0 0 0 0 0 0 0 0 0 0 0 0 0 0 0 0 0 0 0 0 0 0 0 0 0 0 0 0 0 0 0 0 0 0 0 0 0
0 0 0 0 0 0 0 0 0 0 0 0 0 0 0 0 0 0 0 0 0 0 0 0 0 0 0 0 0 0 0 0 0 0 0 0 0 0 0 0 0 0 0 0
0 0 0 0 0 0 0 0 0 0 0 0 0 0 0 0 0 0 0 0 0 0 0 0 0 0 0 0 0 0 0 0 0 0 0 0 0 0 0 0 0 0 0 0
0 0 0 0 0 0 0 0 0 0 0 0 0 0 0 0 0 0 0 0 0 0 0 0 0 0 0 0 0 0 0 0 0 0 0 0 0 0 0 0 0 0 0 -1
Wind_Speed
3 5 10 14 21 23 22 15 10 5 11 15 19 21 20 20 19 18 16 16 14 12 11 10 9 8 7 5 3 1 2 4 5 6 6 7 8 9 10 10 10 11 11 11
4 7 7 8 13 20 21 19 16 7 8 5 17 17 19 20 20 18 18 18 16 14 13 12 11 9 7 6 4 2 1 3 4 5 6 7 8 9 10 10 10 11 11 11
7 9 7 7 17 19 19 17 19 17 15 13 17 20 22 22 21 20 19 19 17 16 14 12 11 9 9 7 6 4 1 1 2 4 6 7 8 9 10 10 10 11 11 11
3 10 8 2 2 18 20 18 20 15 11 15 18 22 21 21 22 21 20 19 18 15 13 13 12 11 8 8 6 5 3 2 1 4 6 5 7 9 9 9 11 11 12 12
6 11 1 9 8 10 16 17 23 22 15 14 14 15 20 22 22 21 20 18 17 15 15 14 13 11 10 8 7 6 4 2 2 3 5 6 5 3 8 9 10 11 11 13
4 6 9 3 9 9 9 9 11 21 19 18 16 15 14 23 22 21 19 17 17 16 15 14 13 12 10 8 7 6 4 2 3 4 6 7 7 8 8 9 10 10 12 11
6 7 7 6 10 12 9 2 5 7 15 20 22 13 10 22 21 20 18 19 18 17 15 15 13 12 10 7 7 5 4 3 3 5 6 7 7 8 8 9 10 11 12 10
5 6 10 12 12 9 5 5 4 2 6 16 18 15 9 18 21 21 21 20 20 16 15 14 14 12 10 8 6 6 4 3 4 5 6 6 8 8 9 10 10 11 11 11
11 9 4 17 5 8 4 7 4 1 1 9 15 17 14 14 19 21 22 20 18 16 15 14 13 11 10 7 7 6 6 4 4 5 6 7 8 8 8 9 9 9 8 8
6 11 10 12 10 8 9 5 3 2 1 7 13 15 17 15 17 19 20 20 18 17 16 15 13 11 9 9 8 7 6 5 4 5 5 6 5 5 6 6 7 8 9 9
10 3 4 8 14 14 11 10 8 7 6 8 10 15 16 15 18 19 20 18 18 17 16 16 14 13 11 10 9 7 6 4 4 4 5 5 5 5 6 6 6 9 10 10
7 10 9 5 14 13 12 11 10 10 10 10 12 13 16 14 16 18 19 18 17 17 16 16 15 13 12 10 9 7 6 4 2 4 4 5 6 7 6 11 12 13 16 13
10 10 13 7 6 11 11 8 7 10 11 10 11 12 16 15 16 17 18 18 18 19 16 15 14 13 12 10 9 7 6 4 3 4 4 5 6 7 9 6 11 13 15 15
11 4 7 10 8 11 10 6 4 6 7 8 9 11 13 14 15 18 19 20 18 17 16 15 14 13 11 10 9 7 6 3 5 5 5 5 6 7 7 9 9 9 8 9
11 13 14 10 14 9 8 7 7 7 8 9 10 12 14 16 17 19 18 17 16 16 15 14 14 13 12 11 9 8 5 5 4 4 5 5 7 7 7 8 9 10 10 8
12 12 15 13 13 13 11 9 10 9 9 10 11 13 15 16 15 17 17 17 17 15 16 14 13 12 12 11 9 6 6 2 4 5 5 5 6 7 7 8 9 9 10 10
15 14 13 13 14 14 13 12 12 11 9 11 14 13 14 15 14 16 17 17 16 14 15 14 13 12 12 11 9 6 5 4 4 5 5 5 6 7 8 8 8 9 11 9
17 16 16 13 13 15 15 14 12 12 11 14 12 12 12 15 16 15 15 15 11 7 11 12 11 12 11 10 8 5 4 4 4 4 5 5 6 7 7 7 8 9 10 9
22 19 18 16 14 15 14 14 13 12 9 9 12 14 15 13 13 11 10 10 11 11 7 9 11 12 11 7 7 5 5 5 4 4 4 4 6 7 7 8 8 10 10 9
26 24 21 20 18 16 15 11 9 8 10 11 8 8 11 7 9 12 13 16 17 9 16 15 15 12 11 10 6 5 5 4 4 4 4 5 6 6 8 8 9 9 9 8
26 23 21 18 15 12 11 7 8 8 8 9 13 12 14 13 13 13 13 11 11 13 16 17 12 9 9 9 8 5 4 4 4 4 4 5 5 7 7 8 8 8 8 7
21 18 17 11 10 11 8 8 8 5 7 8 5 8 10 12 11 12 8 11 10 12 12 11 10 11 9 9 7 5 5 5 4 4 4 5 5 6 7 8 8 8 8 8
20 19 17 15 13 13 10 9 7 9 10 11 12 13 14 10 11 13 12 13 13 14 12 11 11 12 13 8 6 5 5 4 4 4 4 5 6 6 7 8 8 9 8 8
18 17 16 14 10 13 13 9 10 11 7 9 8 9 13 10 8 8 8 13 15 13 10 11 13 14 11 6 6 5 5 4 4 4 5 5 5 6 7 8 9 8 9 10
11 12 13 13 13 11 12 13 11 9 10 9 10 11 11 9 6 9 10 12 18 14 12 14 15 14 6 6 6 5 4 4 4 4 4 5 6 6 7 8 9 9 9 9
10 9 8 10 7 7 7 9 9 9 9 8 8 8 7 8 9 11 11 15 14 14 12 10 8 7 6 6 6 5 5 4 4 5 5 6 6 7 7 8 9 9 8 8
3 1 5 5 4 5 6 8 9 9 9 9 9 9 9 9 10 12 14 13 11 10 9 8 8 8 7 6 5 4 4 4 4 5 5 6 7 6 7 8 9 9 9 9
Wind_Direction
145 147 186 200 192 194 207 211 201 205 211 180 181 180 180 177 177 178 180 179 176 178 175 177 180 183 189 175 168 340 345 353 356 348 351 351 351 350 349 342 340 340 337 335
196 164 178 182 204 202 211 213 229 207 219 188 182 183 180 183 182 183 183 184 181 179 179 181 183 188 183 182 177 215 323 353 357 1 355 357 353 347 341 335 336 328 330 327
201 182 184 236 208 202 211 220 218 223 225 168 182 189 188 186 187 189 187 185 183 183 182 183 184 185 185 180 176 196 198 33 357 0 360 356 348 347 343 333 329 328 327 326
148 166 215 205 246 203 210 214 212 227 211 184 194 195 192 192 190 192 188 185 183 181 180 181 179 182 173 177 182 192 191 191 320 345 347 352 343 339 334 325 329 327 323 323
164 207 303 193 193 180 192 231 223 222 211 198 198 197 200 197 195 195 189 185 182 179 176 175 177 176 183 186 187 188 195 215 325 323 326 331 334 274 322 325 324 323 322 323
177 195 217 208 155 181 181 257 204 209 210 195 178 200 198 191 193 193 188 182 175 171 170 173 178 177 187 189 191 189 190 222 285 312 313 320 325 321 320 319 320 321 318 316
182 220 239 132 154 164 190 135 131 209 207 196 201 208 191 178 189 189 179 177 170 169 173 175 173 181 189 190 199 174 190 233 285 300 309 308 310 311 313 318 319 319 316 321
193 201 232 150 146 199 91 116 124 170 217 210 206 215 157 173 179 178 173 172 170 169 172 172 174 183 186 193 168 185 200 234 283 308 309 305 308 307 311 312 316 317 322 331
198 199 91 179 185 187 161 138 137 108 216 217 200 200 184 174 176 174 172 170 172 171 169 172 177 186 188 172 175 187 204 235 275 298 304 311 307 312 313 319 321 331 318 305
170 203 204 193 198 207 206 228 209 216 185 190 197 195 192 178 175 175 172 171 171 170 173 176 180 184 187 170 177 193 212 232 266 277 321 308 320 325 328 310 307 312 310 309
223 139 167 214 220 220 221 236 241 236 213 190 192 196 196 185 177 176 171 170 174 175 177 178 179 182 178 174 184 202 211 231 265 294 297 307 301 301 300 302 304 305 306 315
217 197 214 197 217 206 215 233 237 234 209 205 200 192 191 186 180 175 172 170 175 176 177 176 180 181 178 182 191 205 217 241 255 275 293 302 310 310 245 242 266 279 283 284
236 217 216 218 167 182 213 227 230 217 220 206 200 197 189 184 182 176 174 175 178 177 177 174 179 181 181 183 193 203 232 242 248 245 275 291 301 305 313 301 245 259 269 277
257 224 215 194 208 203 213 218 202 220 227 219 200 196 188 184 172 179 179 181 176 173 176 175 178 183 181 183 191 203 227 135 269 271 280 287 302 305 305 307 314 316 299 278
250 250 265 247 220 205 198 194 199 213 206 198 194 192 186 183 180 184 179 175 172 173 175 176 180 183 176 183 193 204 220 244 257 280 279 296 289 295 301 303 309 311 313 318
248 245 242 244 242 213 205 207 229 236 208 201 193 194 190 190 184 179 172 169 170 178 178 180 182 180 172 181 192 203 223 212 261 275 281 286 292 297 301 306 309 313 322 327
256 253 237 239 236 239 218 220 220 227 219 203 206 192 184 183 179 176 173 178 181 177 176 177 180 169 172 183 190 197 211 219 229 267 274 293 298 297 305 306 318 323 314 315
249 252 257 241 237 236 237 231 225 230 220 213 200 185 179 180 180 176 178 175 173 154 172 171 164 157 170 176 187 197 209 219 238 260 277 289 300 300 301 314 312 315 307 317
239 240 244 251 250 248 244 232 218 221 218 197 178 180 186 186 179 165 153 148 150 156 177 145 141 158 162 165 169 195 210 222 246 265 284 283 270 297 306 308 317 307 314 318
238 240 240 246 250 240 237 232 205 199 194 186 173 157 175 162 147 149 163 177 185 173 151 156 161 163 165 159 180 196 211 228 252 263 255 283 294 307 298 306 309 311 309 315
233 234 234 230 231 223 218 187 173 179 182 168 175 184 188 176 163 156 166 182 181 154 158 154 163 165 167 159 181 200 203 223 238 255 273 284 294 292 299 300 300 306 310 317
235 228 223 212 203 212 203 181 178 153 164 169 154 135 139 164 161 182 191 187 153 151 150 162 168 162 156 157 184 183 202 219 244 265 274 283 291 298 304 305 308 306 308 310
238 235 233 220 213 215 208 202 175 169 171 173 173 171 178 177 173 172 181 176 156 162 159 159 141 131 144 180 172 183 204 208 237 257 275 282 289 294 300 301 299 300 306 307
248 235 234 231 214 218 209 193 194 191 179 174 169 168 163 160 173 187 147 148 142 151 143 136 141 147 162 168 175 181 197 209 230 251 272 273 277 292 296 298 298 300 297 302
239 226 213 203 204 209 208 193 174 171 172 173 161 175 174 170 160 152 151 144 146 142 135 141 143 148 163 168 176 185 199 216 234 250 275 280 287 289 294 295 294 297 297 299
212 211 202 196 190 187 176 167 175 168 166 159 160 164 161 158 142 147 145 148 147 135 139 141 145 155 162 177 181 191 206 228 235 245 266 277 284 289 289 293 298 297 294 303
151 193 168 154 161 170 173 177 172 171 173 166 157 154 148 142 145 142 140 139 137 134 134 141 150 164 169 175 188 198 214 233 240 259 276 282 282 285 286 291 295 298 297 303